User: anonymous
Location: Unspecified
(0.0000°N, 0.0000°E)
Time: 11:03:55
(UTC+02:00)
Language:

SWIFT - Orbit

View from above orbital plane
View from above orbital plane
View from above satellite
View from above satellite

Ground track
Ground track

The orbit data is extracted from the following two-line orbital elements,

1 28485U 04047A   14209.59011302  .00002096  00000-0  13377-3 0  7369
2 28485 020.5570 289.9074 0012375 270.2725 089.6290 14.99034903529417
Epoch (UTC): 28 July 2014 14:09:45
Eccentricity: 0.0012375
inclination: 20.5570°
perigee height: 561 km
apogee height: 578 km
right ascension of ascending node: 289.9074°
argument of perigee: 270.2725°
revolutions per day: 14.99034903
mean anomaly at epoch: 89.6290°
orbit number at epoch: 52941

The dashed part of the orbit path shows where the satellite is in the earth's shadow,  

DLR